Change the Weather History Date:

Tuesday, August 5, 2014

  Actual Average Record
Temperature  
Mean Temperature 76 °F 78 °F  
Max Temperature 87 °F 87 °F 98 °F (2002)
Min Temperature 64 °F 69 °F 55 °F (1951)
Degree Days  
Heating Degree Days 0 0  
Month to date heating degree days 0 0  
Since 1 June heating degree days 0 3  
Since 1 July heating degree days 0 0  
Cooling Degree Days 11 13  
Month to date cooling degree days 50 65  
Year to date cooling degree days 1015 915  
Since 1 June cooling degree days 760 768  
Growing Degree Days 26 (Base 50)    
Moisture  
Dew Point 62 °F    
Average Humidity 65    
Maximum Humidity 87    
Minimum Humidity 42    
Precipitation  
Precipitation 0.00 in 0.11 in 1.02 in (2012)
Month to date precipitation T 0.63  
Year to date precipitation 24.86 28.86  
Sea Level Pressure  
Sea Level Pressure 30.04 in    
Wind  
Wind Speed 3 mph (SW)    
Max Wind Speed 10 mph    
Max Gust Speed 15 mph    
Visibility 9 miles    
Events      
T = Trace of Precipitation, MM = Missing Value Source: NWS Daily Summary

Daily Weather History Graph

Daily Weather History Graph

Search for Another Location

Airport or City:

Trip Planner

Search our weather history database for the weather conditions in past years. The results will help you decide how hot, cold, wet, or windy it might be!

Date:

Astronomy

Aug. 05, 2014 Rise Set
Actual Time 6:48 AM EDT 8:48 PM EDT
Civil Twilight 6:19 AM EDT 9:16 PM EDT
Nautical Twilight 5:44 AM EDT 9:52 PM EDT
Astronomical Twilight 5:06 AM EDT 10:30 PM EDT
Moon 4:02 PM EDT (8/5) 1:35 AM EDT (8/5)
Length of Visible Light 14h 57m
Length of Day
13h 59m
Waxing Gibbous, 67% of the Moon is Illuminated
Aug 5
Waxing Gibbous
Aug 10
Full
Aug 17
Last Quarter
Aug 25
New
Sep 2
First Quarter

Hourly Weather History & Observations

Time (EDT) Temp. Heat Index Dew Point Humidity Pressure Visibility Wind Dir Wind Speed Gust Speed Precip Events Conditions
12:53 AM 71.1 °F - 60.1 °F 68% 30.05 in 10.0 mi Calm Calm - N/A   Clear
1:53 AM 71.1 °F - 61.0 °F 70% 30.04 in 10.0 mi Calm Calm - N/A   Clear
2:53 AM 68.0 °F - 61.0 °F 78% 30.04 in 10.0 mi Calm Calm - N/A   Clear
3:53 AM 68.0 °F - 61.0 °F 78% 30.04 in 10.0 mi Calm Calm - N/A   Clear
4:53 AM 66.0 °F - 60.1 °F 81% 30.04 in 10.0 mi Calm Calm - N/A   Clear
5:53 AM 66.0 °F - 61.0 °F 84% 30.04 in 9.0 mi Calm Calm - N/A   Clear
6:53 AM 66.9 °F - 62.1 °F 84% 30.05 in 6.0 mi Calm Calm - N/A   Haze
7:53 AM 68.0 °F - 63.0 °F 84% 30.07 in 5.0 mi Calm Calm - N/A   Haze
8:53 AM 73.0 °F - 64.0 °F 73% 30.07 in 6.0 mi Calm Calm - N/A   Haze
9:53 AM 75.0 °F - 63.0 °F 66% 30.08 in 7.0 mi South 3.5 mph - N/A   Clear
10:53 AM 75.9 °F - 64.0 °F 67% 30.09 in 7.0 mi Calm Calm - N/A   Clear
11:53 AM 82.0 °F 83.1 °F 63.0 °F 52% 30.07 in 8.0 mi SSW 9.2 mph - N/A   Clear
12:53 PM 82.0 °F 83.8 °F 64.9 °F 56% 30.07 in 8.0 mi SSE 5.8 mph - N/A   Clear
1:53 PM 84.9 °F 86.1 °F 64.0 °F 49% 30.05 in 10.0 mi South 8.1 mph - N/A   Partly Cloudy
2:53 PM 84.0 °F 84.5 °F 62.1 °F 47% 30.04 in 10.0 mi Variable 5.8 mph - N/A   Mostly Cloudy
3:53 PM 84.9 °F 85.4 °F 62.1 °F 46% 30.02 in 10.0 mi South 6.9 mph - N/A   Scattered Clouds
4:53 PM 84.9 °F 84.4 °F 59.0 °F 41% 30.01 in 10.0 mi WSW 9.2 mph - N/A   Mostly Cloudy
5:53 PM 86.0 °F 85.7 °F 60.1 °F 41% 30.01 in 10.0 mi SW 8.1 mph - N/A   Partly Cloudy
6:53 PM 84.0 °F 84.4 °F 61.0 °F 46% 30.00 in 10.0 mi WSW 5.8 mph - N/A   Overcast
7:53 PM 82.0 °F 83.1 °F 63.0 °F 52% 30.00 in 9.0 mi SW 4.6 mph - N/A   Mostly Cloudy
8:53 PM 80.1 °F 81.5 °F 63.0 °F 56% 29.99 in 8.0 mi WSW 3.5 mph - N/A   Clear
9:53 PM 81.0 °F 81.9 °F 62.1 °F 52% 29.99 in 9.0 mi West 3.5 mph - N/A   Clear
10:53 PM 77.0 °F - 63.0 °F 62% 30.01 in 8.0 mi Calm Calm - N/A   Mostly Cloudy
11:53 PM 75.9 °F - 63.0 °F 64% 30.00 in 8.0 mi WSW 3.5 mph - N/A   Mostly Cloudy